Weather in Tayezhnyy

Russia / Khanty-Mansi Autonomous Okrug — Yugra     61°09′36″N   62°40′48″E
temp.,
°C
wind,
m/s
gust,
m/s
humid.,
%
clouds,
%
prec.,
mm/h
press.,
hPa
HPBL,
m
17 may, tue
tue1723:00+11ese116172 0.0 99610
02:00+10nnw226375 0.0 99647
05:00+9nnw247474 0.0 996101
08:00+13nnw245619 0.0 995365
11:00+17nw34399 0.0 9961647
14:00+19wnw343394 0.0 9962633
17:00+16nnw434398 0.0 9971013
20:00+14n365390 0.0 998401
18 may, wed
wed1823:00+11nne4866100 0.0 1000404
02:00+9nne3778100 0.1 1000364
05:00+7n2595100 4.6 1001225
08:00+8ne2592100 4.2 1001304
11:00+11ne2279100 4.2 1002744
14:00+11nne3375100 0.0 1001591
17:00+10nne3788100 1.4 1000395
20:00+9ene3109293 4.9 1000374
19 may, thu
thu1923:00+6ne259893 5.0 1000150
02:00+7nne1397100 0.0 999122
05:00+7n2397100 0.0 998116
08:00+9n2389100 0.0 998504
11:00+11nne347597 0.0 997805
14:00+11ne4574100 0.1 997897
17:00+11nne4777100 0.4 997725
20:00+4nw61196100 7.6 998351
20 may, fri
fri2023:00+4wnw4996100 9.4 998443
02:00+3wnw4997100 1.3 998382
05:00+3w3797100 2.5 999324
08:00+3w3697100 0.9 999369
11:00+3w3597100 1.4 1000519
14:00+3w3598100 1.8 1001391
17:00+2wnw2599100 3.3 1002267
20:00+1wnw2599100 4.2 1002191
21 may, sat
sat2123:00+1w2799100 6.1 1000333
02:00+2nw2398100 0.5 999555
05:00+1w12100100 1.0 999230
08:00+2sw12100100 0.3 999233
11:00+2ssw2398100 0.8 1000470
14:00+2ssw2599100 0.3 1001293
17:00+2sw2496100 0.4 1002471
20:00+2wsw2396100 0.1 1003474